THOR AGENA B DEB, 510

Orbit data source: Space-Track

THOR AGENA B DEB, 510 is space debris in LEO originally from a launch on Sat, 29 Sep 1962 UTC launched from the Air Force Western Test Range (AFWTR). Debris objects in space refer to the collection of defunct objects orbiting the Earth. Examples of debris include non-operational satellites, rocket bodies, and fragments generated from explosions, collisions, or faulty payload assembly.

Loading next visibility...
Identifier
510, 1962-049C
Orbit
LEO
Country
Flag of USUS
Related business
Manufacturer
Unknown
Mission
Spacecraft
Bus & Motor
Unknown
Mass
Unknown
Launch date (UTC)
1962-09-29 (64 years ago)
Launch vehicle
Unknown
Launch site
Air Force Western Test Range (AFWTR)
Object type
Payload
Rocket body
Debris
Shape & HBR
Unknown shape, 0.1 m
Radar Cross Section
Medium (>0.1 m² and <1 m²)

Expand to show TLE details & history
Last TLE update: 11 hours ago

TLE from 11 hours ago
0 THOR AGENA B DEB
1 00510U 62049C   26207.22660462  .00000058  00000-0  55186-4 0  9994
2 00510  80.5150 287.1127 0015165 354.0561  34.7846 13.70073436188011
Epoch: 2026-07-26T05:26Z
TLE epoch observation values (Epoch: 2026-07-26T05:26:18.639Z)
Latitude
28.55283°
Longitude
-93.20354°
Altitude
993.566 km
Speed
7.362 km/s
True Right ascension
19h 29m 12s
True Declination
28° 24' 48"
Sunlit
Object was in full shadow at epoch
Visualization orbit readout
Latitude
Unknown
Longitude
Unknown
Altitude
Unknown
Speed
Unknown
Apparent Right ascension
Unknown
Apparent Declination
Unknown
Sunlit
N/A
Visualization observer readout
Local Sidereal Time
05:35:45
Azimuth
Unknown
Elevation
Unknown
Doppler factor
Unknown
Orbital elements
Apogee altitude
1,007.755 km
Perigee altitude
985.387 km
Semi-major axis
7,374.708 km
Eccentricity
0.00152
Inclination
80.515°
RAAN
287.1127°
Arg. of periapsis
354.0561°
True anomaly
34.88389°
Mean anomaly
34.7846°
Eccentric anomaly
34.83423°
Mean motion
3.42709 °/min
Orbital period
105.05 mins
BSTAR
0.000055186
Loading maneuver chart data...
Computing Atmospheric mass density...
Loading historical data...
Loading historical data...
Loading historical data...
Loading historical data...
Loading historical data...
Loading historical data...
Loading historical data...
Other satellites on launch #49 in the year 1962 (1962-09-29 UTC)

Documentation

Showing up to 5 results
|